Marshalltown, IA

11:43 AM CST on February 21, 2017 (GMT -0600)
Marshalltown Municipal

Weather History for KMIW - December, 2012

Change the Weather History Date:

Wednesday, December 5, 2012

  Actual Average Record
Temperature  
Mean Temperature 32 °F 26 °F  
Max Temperature 43 °F 35 °F 66 °F (2001)
Min Temperature 20 °F 17 °F -11 °F (2005)
Degree Days  
Heating Degree Days 33 39  
Month to date heating degree days 111 189  
Since 1 July heating degree days 1502 1685  
Cooling Degree Days 0 0  
Month to date cooling degree days 0 0  
Year to date cooling degree days 1082 728  
Moisture  
Dew Point 23 °F    
Average Humidity 68    
Maximum Humidity 84    
Minimum Humidity 51    
Precipitation  
Precipitation 0.00 in 0.05 in 0.38 in (2004)
Month to date precipitation 0.00 0.23  
Sea Level Pressure  
Sea Level Pressure 30.25 in    
Wind  
Wind Speed 13 mph (ESE)    
Max Wind Speed 23 mph    
Max Gust Speed 29 mph    
Visibility 10 miles    
Events      
T = Trace of Precipitation, MM = Missing Value Source: NWS Daily Summary

Daily Weather History Graph

Daily Weather History Graph

Search for Another Location

Airport or City:

Trip Planner

Search our weather history database for the weather conditions in past years. The results will help you decide how hot, cold, wet, or windy it might be!

Date:

Astronomy

Dec. 05, 2012 Rise Set
Actual Time 7:25 AM CST 4:39 PM CST
Civil Twilight 6:53 AM CST 5:11 PM CST
Nautical Twilight 6:18 AM CST 5:46 PM CST
Astronomical Twilight 5:44 AM CST 6:20 PM CST
Moon 11:35 PM CST (12/5) 11:44 AM CST (12/5)
Length of Visible Light 10h 17m
Length of Day
9h 14m
Waning Gibbous, 59% of the Moon is Illuminated
Dec 5
Waning Gibbous
Dec 6
Last Quarter
Dec 13
New
Dec 19
First Quarter
Dec 28
Full

Hourly Weather History & Observations

Time (CST) Temp. Windchill Dew Point Humidity Pressure Visibility Wind Dir Wind Speed Gust Speed Precip Events Conditions
12:53 AM 24.1 °F 17.0 °F 18.0 °F 77% 30.40 in 10.0 mi NE 5.8 mph - N/A   Clear
1:53 AM 21.9 °F 17.2 °F 17.1 °F 82% 30.40 in 10.0 mi NE 3.5 mph - N/A   Clear
2:53 AM 21.0 °F 12.4 °F 17.1 °F 85% 30.40 in 10.0 mi ENE 6.9 mph - N/A   Clear
3:53 AM 19.9 °F 12.1 °F 16.0 °F 85% 30.38 in 10.0 mi ENE 5.8 mph - N/A   Clear
4:53 AM 21.0 °F 13.4 °F 17.1 °F 85% 30.39 in 10.0 mi ENE 5.8 mph - N/A   Clear
5:53 AM 23.0 °F 13.1 °F 17.1 °F 78% 30.39 in 10.0 mi East 9.2 mph - N/A   Clear
6:53 AM 21.9 °F 11.7 °F 17.1 °F 82% 30.39 in 10.0 mi East 9.2 mph - N/A   Clear
8:53 AM 27.0 °F 18.0 °F 19.0 °F 72% 30.39 in 10.0 mi ESE 9.2 mph - N/A   Clear
9:53 AM 30.9 °F 21.7 °F 21.0 °F 67% 30.39 in 10.0 mi SE 11.5 mph - N/A   Clear
10:53 AM 35.1 °F 25.5 °F 23.0 °F 61% 30.36 in 10.0 mi SE 15.0 mph - N/A   Clear
11:53 AM 37.0 °F 28.1 °F 24.1 °F 59% 30.32 in 10.0 mi SE 15.0 mph 21.9 mph N/A   Clear
12:53 PM 39.9 °F 31.4 °F 25.0 °F 55% 30.27 in 10.0 mi SE 16.1 mph - N/A   Clear
1:53 PM 41.0 °F 33.1 °F 25.0 °F 53% 30.24 in 10.0 mi SE 15.0 mph - N/A   Clear
2:53 PM 43.0 °F 35.7 °F 26.1 °F 51% 30.21 in 10.0 mi SE 15.0 mph - N/A   Clear
3:53 PM 41.0 °F 32.5 °F 25.0 °F 53% 30.18 in 10.0 mi SE 17.3 mph - N/A   Clear
4:53 PM 39.9 °F 32.1 °F 26.1 °F 58% 30.17 in 10.0 mi SE 13.8 mph - N/A   Clear
5:53 PM 39.0 °F 29.6 °F 25.0 °F 57% 30.15 in 10.0 mi SE 18.4 mph - N/A   Clear
6:53 PM 37.9 °F 28.2 °F 26.1 °F 62% 30.12 in 10.0 mi SE 18.4 mph - N/A   Clear
7:53 PM 39.0 °F 29.0 °F 27.0 °F 62% 30.09 in 10.0 mi SE 20.7 mph 27.6 mph N/A   Clear
8:53 PM 39.9 °F 30.5 °F 28.9 °F 65% 30.07 in 10.0 mi SSE 19.6 mph 27.6 mph N/A   Partly Cloudy
9:53 PM 39.9 °F 30.8 °F 30.0 °F 68% 30.05 in 10.0 mi SSE 18.4 mph 25.3 mph N/A   Clear
10:53 PM 41.0 °F 33.1 °F 32.0 °F 70% 30.03 in 10.0 mi SSE 15.0 mph - N/A   Mostly Cloudy
11:53 PM 42.1 °F 34.5 °F 33.1 °F 70% 30.03 in 10.0 mi SSE 15.0 mph 24.2 mph N/A   Overcast